Location: Monfort
(47.1967°N, 0.2115°W)
Time: 08:47:30
(UTC+00:00)

MOS 1 Rocket - Pass Details

Date: 24 October 2020
Orbit: 615 x 829 km, 97.4° (Epoch: 28 November)

Event Time Altitude Azimuth Distance (km) Brightness Sun altitude
Rises 18:51:57 0° 14° (NNE) 2,989 6.5 -20.2°
Reaches altitude 10° 18:54:08 10° 17° (NNE) 2,099 5.6 -20.6°
Maximum altitude 18:58:43 72° 102° (ESE) 732 3.1 -21.4°
Drops below altitude 10° 19:03:33 10° 187° (S) 2,214 5.9 -22.2°
Sets 19:05:54 0° 189° (S) 3,166 6.7 -22.6°
